Погода в Погореловке

Россия / Калужская область     54°17′33″N   35°59′58″E
темп.,
°C
ветер,
м/с
пор.,
м/с
влажн.,
%
обл.,
%
осадки,
мм/ч
давл.,
гПа
погр.,
м
16 мая, вс
вс1600:00+11ююз39963 0.0 1011209
03:00+10ююз35950 0.0 1012105
06:00+11ю24945 0.0 1012116
09:00+17ююз46795 0.0 1013524
12:00+20ююз47622 0.2 10131411
15:00+21ю565792 1.0 10131982
18:00+18ююв2374100 0.1 101243
21:00+16ю2281100 0.1 101312
17 мая, пн
пн1700:00+14юв118385 0.0 101311
03:00+12в228521 0.0 101316
06:00+13в31088100 0.0 1013209
09:00+19в6107975 0.4 1011480
12:00+24вюв7106557 0.0 10101042
15:00+25юв6115964 0.0 10091551
18:00+22вюв61368100 0.0 1008532
21:00+19вюв6167050 0.0 1008491
18 мая, вт
вт1800:00+17юв6158051 0.0 1007394
03:00+15юв4108898 0.0 1007237
06:00+15юв499224 0.4 1007227
09:00+19юв598381 1.3 1007471
12:00+23ююв6966100 0.0 10071109
15:00+24юв6106370 0.0 10061541
18:00+23вюв4868100 0.0 1005383
21:00+18юв3886100 0.4 1006174
19 мая, ср
ср1900:00+15ю249377 0.0 100667
03:00+14в1192100 0.1 100611
06:00+15юв369492 0.4 1006226
09:00+18ююв597898 0.4 1006641
12:00+20юв6968100 0.4 10061151
15:00+20юв7107265 1.3 10061357
18:00+18ююв5882100 0.8 1006764
21:00+15ююв359369 0.9 1007108
20 мая, чт
чт2000:00+13юв239279 0.1 100641
03:00+12юв2394100 0.1 100659
06:00+12ююв2694100 0.0 1006199
09:00+15ю348192 0.4 1005378
12:00+17ю567697 2.5 1005963
15:00+17ююз687353 4.4 10051304
18:00+15юз711855 1.4 1007867
21:00+11юз7128481 1.6 1010858